Odessa, TX

5:06 PM CDT on April 23, 2018 (GMT -0500)
Odessa-Schlemeyer

Weather History for KODO - October, 2012

Change the Weather History Date:

Tuesday, October 30, 2012

  Actual Average (KMAF) Record (KMAF)
Temperature  
Mean Temperature 58 °F -  
Max Temperature 78 °F 68 °F 90 °F (2016)
Min Temperature 39 °F 45 °F 24 °F (1993)
Degree Days  
Heating Degree Days 6    
Growing Degree Days 8 (Base 50)    
Moisture  
Dew Point 36 °F    
Average Humidity 49    
Maximum Humidity 79    
Minimum Humidity 19    
Precipitation  
Precipitation 0.00 in - - ()
Sea Level Pressure  
Sea Level Pressure 29.97 in    
Wind  
Wind Speed 5 mph (ENE)    
Max Wind Speed 8 mph    
Max Gust Speed -    
Visibility 10 miles    
Events      
Averages and records for this station are not official NWS values.
T = Trace of Precipitation, MM = Missing Value Source: NWS Daily Summary

Daily Weather History Graph

Daily Weather History Graph

Search for Another Location

Airport or City:

Astronomy

Oct. 30, 2012 Rise Set
Actual Time 8:04 AM CDT 7:01 PM CDT
Civil Twilight 7:39 AM CDT 7:26 PM CDT
Nautical Twilight 7:10 AM CDT 7:55 PM CDT
Astronomical Twilight 6:42 AM CDT 8:23 PM CDT
Moon 7:37 PM CDT (10/30) 8:49 AM CDT (10/30)
Length of Visible Light 11h 46m
Length of Day
10h 56m
Full, 99% of the Moon is Illuminated
Oct 30
Full
Nov 6
Last Quarter
Nov 13
New
Nov 20
First Quarter
Nov 28
Full

Hourly Weather History & Observations

Time (CDT) Temp. Windchill Dew Point Humidity Pressure Visibility Wind Dir Wind Speed Gust Speed Precip Events Conditions
12:53 AM 55.0 °F - 35.1 °F 47% 29.99 in 10.0 mi South 6.9 mph - N/A   Clear
1:53 AM 55.0 °F - 35.1 °F 47% 29.97 in 10.0 mi South 8.1 mph - N/A   Clear
2:53 AM 52.0 °F - 35.1 °F 53% 29.96 in 10.0 mi Calm Calm - N/A   Clear
3:53 AM 46.0 °F 42.5 °F 36.0 °F 68% 29.97 in 10.0 mi NE 6.9 mph - N/A   Clear
4:53 AM 44.1 °F 41.5 °F 35.1 °F 71% 29.96 in 10.0 mi North 4.6 mph - N/A   Clear
5:53 AM 43.0 °F - 35.1 °F 74% 29.96 in 10.0 mi Calm Calm - N/A   Clear
6:53 AM 41.0 °F 36.4 °F 35.1 °F 79% 29.97 in 10.0 mi North 6.9 mph - N/A   Clear
7:53 AM 39.9 °F 36.7 °F 34.0 °F 79% 29.99 in 10.0 mi NNW 4.6 mph - N/A   Clear
10:53 AM 59.0 °F - 37.9 °F 46% 30.01 in 10.0 mi Calm Calm - N/A   Clear
11:53 AM 66.0 °F - 36.0 °F 33% 30.00 in 10.0 mi Calm Calm - N/A   Clear
12:53 PM 69.1 °F - 37.0 °F 31% 29.99 in 10.0 mi Calm Calm - N/A   Clear
3:53 PM 77.0 °F - 33.1 °F 20% 29.92 in 10.0 mi Calm Calm - N/A   Clear
4:53 PM 78.1 °F - 32.0 °F 19% 29.91 in 10.0 mi Calm Calm - N/A   Clear
5:53 PM 77.0 °F - 30.9 °F 19% 29.91 in 10.0 mi East 3.5 mph - N/A   Clear
6:53 PM 69.1 °F - 37.0 °F 31% 29.94 in 10.0 mi North - - N/A   Clear
7:53 PM 63.0 °F - 39.9 °F 43% 29.96 in 10.0 mi East 8.1 mph - N/A   Clear
8:53 PM 59.0 °F - 39.9 °F 49% 29.97 in 10.0 mi ENE 8.1 mph - N/A   Clear
9:53 PM 55.9 °F - 39.9 °F 55% 29.97 in 10.0 mi East 6.9 mph - N/A   Clear
10:53 PM 55.0 °F - 39.9 °F 57% 29.99 in 10.0 mi ENE 8.1 mph - N/A   Clear
11:53 PM 53.1 °F - 41.0 °F 64% 29.98 in 10.0 mi East 6.9 mph - N/A   Clear